[[{"header":{"parameterUnit":"m.s-1","parameterCategory":2,"la1":30.2991,"la2":30.254,"lo1":-89.0895,"lo2":-89.0444,"dy":0.0017,"dx":0.0017,"nx":28,"ny":28,"refTime":"2024-04-05T09:00:00:Z","depth":"0","parameterNumber":2,"parameterNumberName":"U-component_of_CURRENTS"},"data":[0,0,0,0,0,0,0,0,0,0,0,0,0,0,0,0,0,0,0,0,0,0,0,0,0,0,0,0,0,0,0,0,0,0,0,0,0,0,0,0,0,0,0,0,0,0,0,0,0,0,0,0,0,0,0,0,0,0,-0.2544,-0.2544,0,-0.2509,-0.2509,-0.2508,-0.2485,-0.2485,-0.2485,-0.2484,-0.2476,-0.2476,-0.2476,0,0,0,0,0,0,0,0,0,0,0,0,0,-0.2538,-0.2539,-0.2544,-0.2544,-0.2543,-0.2509,-0.2509,-0.2508,-0.2485,-0.2485,-0.2485,-0.2484,-0.2476,-0.2476,-0.2476,0,0,0,0,0,0,0,0,0,0,0,0,0,-0.2526,-0.2539,-0.2544,-0.2528,-0.2526,-0.2509,-0.2509,-0.2508,-0.2485,-0.2485,-0.2485,-0.2484,-0.2476,-0.2476,-0.2476,-0.2479,0,0,-0.2475,-0.2475,0,0,0,0,0,0,0,0,-0.2526,-0.2526,-0.2531,-0.2529,-0.2527,-0.2501,-0.2503,-0.25,-0.2485,-0.25,-0.2484,-0.2484,-0.2487,-0.2486,-0.2479,-0.2479,-0.2478,-0.2475,-0.2475,-0.2475,-0.2475,0,0,0,0,0,0,0,-0.2527,-0.2527,-0.253,-0.253,-0.2528,-0.2504,-0.2502,-0.2502,-0.2496,-0.2499,-0.2497,-0.2494,-0.2486,-0.248,-0.2479,-0.2478,-0.2475,-0.2475,-0.2475,-0.2475,-0.2558,-0.256,0,0,0,0,0,0,-0.2535,-0.2528,-0.2531,-0.2529,-0.2526,-0.2505,-0.2503,-0.251,-0.2495,-0.2493,-0.2494,-0.2493,-0.248,-0.2479,-0.2479,-0.2514,-0.2475,-0.2475,-0.2475,-0.2556,-0.2559,-0.2561,0,0,0,0,0,0,-0.2535,-0.2536,-0.2533,-0.2527,-0.2525,-0.2505,-0.2513,-0.2509,-0.2504,-0.2491,-0.2489,-0.2494,-0.248,-0.2479,-0.2496,-0.2512,-0.2475,-0.2475,-0.2553,-0.2557,-0.256,-0.2565,0,0,0,0,0,0,-0.2536,-0.2537,-0.2545,-0.2528,-0.2526,-0.2535,-0.2513,-0.2509,-0.2503,-0.2501,-0.249,-0.2489,-0.2479,-0.2497,-0.2496,-0.2512,-0.2475,-0.255,-0.2555,-0.2559,-0.2562,-0.2568,-0.2573,0,0,0,0,0,-0.2536,-0.2556,-0.2546,-0.2546,-0.2538,-0.2536,-0.2533,-0.2517,-0.2503,-0.251,-0.2508,-0.2489,-0.2525,-0.2498,-0.2497,-0.2513,-0.2548,-0.2554,-0.2559,-0.2559,-0.2567,-0.2573,0,0,0,0,0,0,-0.2563,-0.2555,-0.2543,-0.2561,-0.2551,-0.2532,-0.2534,-0.2521,-0.2522,-0.252,-0.2505,-0.2505,-0.2532,-0.2531,-0.2503,-0.2557,-0.2539,-0.2544,-0.254,-0.2547,-0.2552,-0.255,-0.2475,0,0,0,0,0,-0.2571,-0.2579,-0.2566,-0.2579,-0.2574,-0.2552,-0.2548,-0.2538,-0.2534,-0.2533,-0.2525,-0.2533,-0.2553,-0.2555,-0.257,-0.2587,-0.2594,-0.2606,-0.2612,-0.2616,-0.2619,-0.2665,-0.2674,-0.2578,-0.2578,-0.2578,0,0,-0.2585,-0.258,-0.2586,-0.2584,-0.2571,-0.2569,-0.255,-0.2549,-0.255,-0.2534,-0.2538,-0.255,-0.2566,-0.2591,-0.2603,-0.2588,-0.2646,-0.2623,-0.2626,-0.2626,-0.2672,-0.2681,-0.2689,-0.2582,-0.2581,-0.258,0,0,-0.261,-0.2611,-0.262,-0.2613,-0.2599,-0.2587,-0.2589,-0.2574,-0.2571,-0.2579,-0.258,-0.2605,-0.2613,-0.2633,-0.2644,-0.2696,-0.2679,-0.2704,-0.2718,-0.2763,-0.277,-0.2777,-0.2779,-0.2785,-0.2701,-0.2701,-0.2701,0,-0.2625,-0.2633,-0.2624,-0.2624,-0.2616,-0.2597,-0.2599,-0.2597,-0.2591,-0.2598,-0.2587,-0.263,-0.2637,-0.2681,-0.2698,-0.2705,-0.2713,-0.2679,-0.2767,-0.2774,-0.278,-0.2781,-0.2788,-0.2701,-0.2701,-0.2701,-0.2701,0,-0.2648,-0.2652,-0.2656,-0.2647,-0.2643,-0.2645,-0.2634,-0.2638,-0.2628,-0.2626,-0.2663,-0.2679,-0.2704,-0.2719,-0.2716,-0.2775,-0.2758,-0.2768,-0.2737,-0.279,-0.2788,-0.2795,-0.2703,-0.2702,-0.2702,-0.2702,0,0,-0.2679,-0.2674,-0.2673,-0.2667,-0.2653,-0.2652,-0.266,-0.2666,-0.2674,-0.2683,-0.2699,-0.2743,-0.2747,-0.2764,-0.2774,-0.2809,-0.2853,-0.2803,-0.2805,-0.2784,-0.2922,-0.2835,-0.2834,-0.2875,-0.2876,-0.2878,-0.2893,0,-0.2694,-0.2704,-0.2694,-0.2696,-0.2695,-0.2681,-0.269,-0.2695,-0.2696,-0.2708,-0.2739,-0.2761,-0.2766,-0.2775,-0.2816,-0.2842,-0.2877,-0.2846,-0.2894,-0.2895,-0.2794,-0.2843,-0.2735,-0.2733,-0.29,-0.2902,-0.2902,0,-0.2713,-0.2713,-0.2725,-0.2716,-0.2714,-0.2715,-0.2718,-0.2721,-0.274,-0.2744,-0.2772,-0.2781,-0.2825,-0.2827,-0.2899,-0.2876,-0.2905,-0.2927,-0.2928,-0.2851,-0.2823,-0.2716,-0.2741,-0.2551,-0.2914,-0.2913,-0.2912,0,-0.2736,-0.2732,-0.2743,-0.2739,-0.2732,-0.2735,-0.2728,-0.2738,-0.2741,-0.2762,-0.2765,-0.2817,-0.2828,-0.2889,-0.2905,-0.2913,-0.297,-0.299,-0.2944,-0.2936,-0.2856,-0.2838,-0.2686,-0.3067,-0.3067,-0.3067,-0.3067,0,-0.2756,-0.2759,-0.2754,-0.2756,-0.276,-0.2748,-0.2753,-0.2757,-0.2763,-0.277,-0.2783,-0.2795,-0.2847,-0.2868,-0.2909,-0.2921,-0.2975,-0.295,-0.2945,-0.2853,-0.2835,-0.2676,-0.2579,-0.3067,-0.3067,-0.3067,-0.3067,0,-0.2779,-0.278,-0.2785,-0.2779,-0.2773,-0.2773,-0.2752,-0.276,-0.2761,-0.2767,-0.2771,-0.2782,-0.2794,-0.2821,-0.2891,-0.2904,-0.2836,-0.2939,-0.2795,-0.2772,-0.2553,-0.2462,-0.2412,-0.2353,-0.2903,-0.2901,-0.2899,0,-0.2791,-0.2802,-0.2799,-0.2799,-0.2792,-0.2783,-0.278,-0.2766,-0.2765,-0.2759,-0.2765,-0.2758,-0.2754,-0.2776,-0.2779,-0.2804,-0.2737,-0.2729,-0.2743,-0.2515,-0.2413,-0.2433,-0.2391,-0.2636,-0.2632,-0.2629,-0.2627,0,-0.2807,-0.2815,-0.2818,-0.2816,-0.281,-0.2791,-0.2777,-0.2773,-0.2759,-0.2759,-0.2743,-0.2733,-0.2703,-0.2658,-0.2647,-0.2651,-0.2549,-0.2668,-0.2491,-0.223,-0.219,-0.2137,-0.2618,-0.26,-0.2603,-0.2605,-0.2606,-0.2607,-0.2816,-0.2823,-0.2831,-0.282,-0.2811,-0.2782,-0.2749,-0.2747,-0.2728,-0.2698,-0.2721,-0.267,-0.2589,-0.2544,-0.2465,-0.2229,-0.2363,-0.2194,-0.2116,-0.2171,-0.2066,-0.2457,-0.2397,-0.2398,-0.2399,-0.2401,-0.2402,0,-0.2819,-0.2821,-0.2825,-0.28,-0.2767,-0.2763,-0.273,-0.2687,-0.2649,-0.264,-0.2624,-0.2529,-0.2378,-0.2219,-0.1992,-0.1759,-0.174,-0.161,-0.159,-0.1589,-0.1969,-0.1901,-0.1658,-0.1658,-0.1658,-0.1658,-0.1658,-0.1659,-0.2816,-0.2824,-0.2816,-0.2748,-0.272,-0.2638,-0.2599,-0.2557,-0.2519,-0.244,-0.2382,-0.2362,-0.205,-0.1691,-0.1308,-0.1236,-0.1096,-0.1037,-0.1031,-0.1206,-0.1255,-0.1302,-0.1214,-0.0832,-0.0831,-0.0697,-0.0694,-0.0692]},{"header":{"parameterUnit":"m.s-1","parameterCategory":2,"la1":30.2991,"la2":30.254,"lo1":-89.0895,"lo2":-89.0444,"dy":0.0017,"dx":0.0017,"nx":28,"ny":28,"refTime":"2024-04-05T09:00:00:Z","depth":"0","parameterNumber":3,"parameterNumberName":"V-component_of_CURRENTS"},"data":[0,0,0,0,0,0,0,0,0,0,0,0,0,0,0,0,0,0,0,0,0,0,0,0,0,0,0,0,0,0,0,0,0,0,0,0,0,0,0,0,0,0,0,0,0,0,0,0,0,0,0,0,0,0,0,0,0,0,-0.143,-0.1429,0,-0.1404,-0.1404,-0.1404,-0.1388,-0.1388,-0.1388,-0.1387,-0.1326,-0.1325,-0.1324,0,0,0,0,0,0,0,0,0,0,0,0,0,-0.1435,-0.1436,-0.143,-0.1429,-0.1428,-0.1404,-0.1404,-0.1404,-0.1388,-0.1388,-0.1387,-0.1387,-0.1327,-0.1325,-0.1324,0,0,0,0,0,0,0,0,0,0,0,0,0,-0.1427,-0.1436,-0.143,-0.1415,-0.1414,-0.1404,-0.1404,-0.1404,-0.1388,-0.1388,-0.1387,-0.1387,-0.1327,-0.1325,-0.1323,-0.1322,0,0,-0.1317,-0.1317,0,0,0,0,0,0,0,0,-0.1427,-0.1427,-0.1418,-0.1416,-0.1414,-0.1396,-0.1384,-0.1374,-0.1389,-0.1401,-0.1387,-0.1387,-0.1345,-0.1341,-0.1343,-0.1319,-0.1317,-0.1317,-0.1316,-0.1315,-0.1315,0,0,0,0,0,0,0,-0.1428,-0.1428,-0.1423,-0.1418,-0.1415,-0.14,-0.1399,-0.1382,-0.1378,-0.14,-0.1398,-0.1391,-0.1344,-0.1345,-0.1341,-0.1316,-0.1317,-0.1316,-0.1314,-0.1314,-0.125,-0.125,0,0,0,0,0,0,-0.1427,-0.1429,-0.1423,-0.1422,-0.1416,-0.14,-0.1399,-0.1405,-0.1379,-0.1374,-0.1391,-0.139,-0.1348,-0.1343,-0.1338,-0.1335,-0.1315,-0.1313,-0.1312,-0.1251,-0.125,-0.125,0,0,0,0,0,0,-0.1428,-0.1428,-0.1424,-0.1421,-0.1419,-0.1401,-0.1408,-0.1405,-0.1409,-0.1372,-0.1367,-0.1398,-0.1347,-0.1341,-0.1335,-0.1332,-0.1313,-0.1311,-0.1251,-0.1251,-0.125,-0.1327,0,0,0,0,0,0,-0.1428,-0.1429,-0.1441,-0.1422,-0.1419,-0.1433,-0.1408,-0.1405,-0.1403,-0.1402,-0.1376,-0.1369,-0.1347,-0.1338,-0.1333,-0.1329,-0.1309,-0.1252,-0.1251,-0.125,-0.1325,-0.1329,-0.1332,0,0,0,0,0,-0.1429,-0.1455,-0.1442,-0.1441,-0.1435,-0.1434,-0.1432,-0.1418,-0.1404,-0.1418,-0.1397,-0.137,-0.1327,-0.1337,-0.1331,-0.1326,-0.1253,-0.1251,-0.125,-0.1323,-0.1328,-0.1332,0,0,0,0,0,0,-0.1469,-0.1455,-0.144,-0.1462,-0.145,-0.143,-0.1438,-0.1425,-0.142,-0.1416,-0.1381,-0.1375,-0.136,-0.1332,-0.1345,-0.13,-0.1278,-0.1275,-0.1335,-0.1339,-0.1343,-0.1368,-0.1308,0,0,0,0,0,-0.1481,-0.1493,-0.1472,-0.1488,-0.1483,-0.146,-0.1458,-0.1448,-0.1435,-0.1433,-0.1411,-0.1378,-0.135,-0.1339,-0.1312,-0.1303,-0.1298,-0.1287,-0.1291,-0.1294,-0.1307,-0.13,-0.1305,-0.1246,-0.1246,-0.1246,0,0,-0.1499,-0.1492,-0.1499,-0.1497,-0.1483,-0.1483,-0.1459,-0.1462,-0.1462,-0.1425,-0.1425,-0.1396,-0.135,-0.1336,-0.1325,-0.1315,-0.131,-0.1293,-0.1296,-0.1308,-0.13,-0.1306,-0.1311,-0.1245,-0.1245,-0.1245,0,0,-0.1532,-0.1534,-0.1548,-0.154,-0.1524,-0.1512,-0.1514,-0.1497,-0.1493,-0.1487,-0.1452,-0.1434,-0.1391,-0.1367,-0.1344,-0.135,-0.1329,-0.1324,-0.1368,-0.136,-0.1366,-0.1371,-0.1392,-0.1398,-0.1326,-0.1326,-0.1326,0,-0.1548,-0.1564,-0.1553,-0.1556,-0.1552,-0.1526,-0.1534,-0.1527,-0.1512,-0.1511,-0.1493,-0.144,-0.1406,-0.1387,-0.1386,-0.1361,-0.1363,-0.1362,-0.1369,-0.1374,-0.1378,-0.1397,-0.1403,-0.133,-0.1329,-0.1329,-0.1329,0,-0.158,-0.1592,-0.16,-0.1592,-0.1592,-0.1599,-0.1578,-0.1585,-0.1568,-0.1551,-0.1536,-0.1499,-0.1467,-0.1444,-0.1419,-0.1419,-0.1416,-0.1379,-0.137,-0.1389,-0.1408,-0.1413,-0.1335,-0.1334,-0.1333,-0.1332,0,0,-0.1608,-0.162,-0.162,-0.1624,-0.1612,-0.1616,-0.1624,-0.1623,-0.1627,-0.1606,-0.1609,-0.1563,-0.1542,-0.1515,-0.1479,-0.1476,-0.1509,-0.1447,-0.1445,-0.149,-0.1521,-0.1534,-0.154,-0.1477,-0.1478,-0.1479,-0.1531,0,-0.1629,-0.1656,-0.1652,-0.1671,-0.168,-0.1667,-0.1677,-0.1674,-0.1659,-0.1659,-0.1623,-0.1602,-0.1566,-0.1553,-0.1547,-0.1508,-0.1522,-0.15,-0.1476,-0.1476,-0.1503,-0.1546,-0.1524,-0.157,-0.1536,-0.1537,-0.1537,0,-0.165,-0.1667,-0.1698,-0.1715,-0.1717,-0.1726,-0.174,-0.1743,-0.1735,-0.1723,-0.1705,-0.1669,-0.1658,-0.1619,-0.1601,-0.159,-0.1571,-0.1549,-0.1549,-0.154,-0.1498,-0.1538,-0.158,-0.1416,-0.1544,-0.1544,-0.1543,0,-0.1674,-0.1696,-0.1727,-0.1729,-0.1745,-0.1761,-0.1768,-0.1766,-0.1775,-0.1762,-0.1762,-0.1736,-0.172,-0.1695,-0.1649,-0.1627,-0.1638,-0.1592,-0.1597,-0.1598,-0.1564,-0.1562,-0.1463,-0.1598,-0.1598,-0.1597,-0.1597,0,-0.1696,-0.1715,-0.1743,-0.1756,-0.1797,-0.179,-0.1823,-0.1825,-0.1826,-0.184,-0.1794,-0.18,-0.1737,-0.1726,-0.1686,-0.167,-0.1667,-0.1629,-0.1616,-0.1591,-0.159,-0.1431,-0.1289,-0.1599,-0.1599,-0.1599,-0.1598,0,-0.171,-0.1729,-0.1765,-0.1796,-0.1811,-0.1836,-0.1865,-0.1889,-0.1876,-0.1894,-0.1892,-0.1858,-0.184,-0.1793,-0.1754,-0.172,-0.1578,-0.1691,-0.1685,-0.167,-0.1517,-0.138,-0.1176,-0.1079,-0.1713,-0.1714,-0.1714,0,-0.1716,-0.1742,-0.1798,-0.1833,-0.1849,-0.1887,-0.1923,-0.1922,-0.194,-0.1932,-0.1948,-0.1928,-0.1927,-0.1886,-0.1822,-0.1786,-0.1583,-0.1732,-0.168,-0.1528,-0.1364,-0.1198,-0.1118,-0.1672,-0.1672,-0.1673,-0.1673,0,-0.173,-0.1759,-0.1797,-0.1873,-0.192,-0.1969,-0.2007,-0.2029,-0.2027,-0.2043,-0.2057,-0.2054,-0.2,-0.1961,-0.1897,-0.1832,-0.1533,-0.1736,-0.1563,-0.1322,-0.1145,-0.104,-0.1632,-0.1674,-0.1674,-0.1674,-0.1674,-0.1674,-0.1742,-0.1785,-0.1849,-0.1912,-0.1975,-0.2037,-0.2076,-0.2115,-0.2155,-0.2182,-0.217,-0.2179,-0.2064,-0.1972,-0.1877,-0.1623,-0.1529,-0.1519,-0.1372,-0.1225,-0.1096,-0.1714,-0.1742,-0.1742,-0.1742,-0.1742,-0.1742,0,-0.1764,-0.1818,-0.1884,-0.1973,-0.2042,-0.2063,-0.2126,-0.2157,-0.2214,-0.2252,-0.2286,-0.2201,-0.2082,-0.1879,-0.1598,-0.1343,-0.116,-0.1134,-0.0877,-0.0822,-0.1385,-0.1351,-0.1311,-0.1311,-0.1311,-0.1312,-0.1312,-0.1312,-0.178,-0.1853,-0.1889,-0.2002,-0.2067,-0.2147,-0.2179,-0.2226,-0.2249,-0.2252,-0.223,-0.215,-0.1702,-0.1366,-0.1005,-0.0912,-0.0559,-0.0456,-0.0323,-0.0698,-0.0722,-0.0745,-0.0683,-0.0504,-0.0502,0.0211,0.0218,0.0224]}],[{"header":{"parameterUnit":"m.s-1","parameterCategory":2,"la1":30.2991,"la2":30.254,"lo1":-89.0895,"lo2":-89.0444,"dy":0.0017,"dx":0.0017,"nx":28,"ny":28,"refTime":"2024-04-05T09:00:00:Z","depth":"2","parameterNumber":2,"parameterNumberName":"U-component_of_CURRENTS"},"data":[0,0,0,0,0,0,0,0,0,0,0,0,0,0,0,0,0,0,0,0,0,0,0,0,0,0,0,0,0,0,0,0,0,0,0,0,0,0,0,0,0,0,0,0,0,0,0,0,0,0,0,0,0,0,0,0,0,0,-0.1203,-0.1206,0,-0.1454,-0.1457,-0.1459,-0.153,-0.153,-0.1529,-0.1529,-0.1589,-0.1591,-0.1593,0,0,0,0,0,0,0,0,0,0,0,0,0,-0.1031,-0.1031,-0.1202,-0.1206,-0.1211,-0.1454,-0.1457,-0.1459,-0.153,-0.153,-0.1529,-0.1529,-0.1588,-0.1591,-0.1593,0,0,0,0,0,0,0,0,0,0,0,0,0,-0.1166,-0.1031,-0.1202,-0.1282,-0.1293,-0.1454,-0.1457,-0.146,-0.1531,-0.153,-0.1529,-0.1528,-0.1587,-0.159,-0.1593,-0.1628,0,0,-0.1603,-0.1604,0,0,0,0,0,0,0,0,-0.1158,-0.1171,-0.1267,-0.1277,-0.1289,-0.1469,-0.1419,-0.151,-0.1531,-0.143,-0.1529,-0.1528,-0.1538,-0.1545,-0.1583,-0.1631,-0.1633,-0.1603,-0.1605,-0.1606,-0.1607,0,0,0,0,0,0,0,-0.1148,-0.1163,-0.1292,-0.1271,-0.1285,-0.1392,-0.1407,-0.1438,-0.1474,-0.1439,-0.1447,-0.1491,-0.1541,-0.158,-0.1584,-0.1634,-0.1603,-0.1606,-0.1608,-0.1609,-0.1696,-0.1696,0,0,0,0,0,0,-0.1125,-0.1152,-0.1285,-0.1301,-0.1232,-0.1395,-0.1412,-0.1404,-0.1478,-0.1493,-0.1491,-0.1493,-0.1575,-0.1581,-0.1587,-0.1626,-0.1606,-0.1609,-0.1611,-0.1695,-0.1696,-0.1696,0,0,0,0,0,0,-0.1119,-0.1132,-0.1275,-0.1244,-0.127,-0.1398,-0.139,-0.141,-0.1469,-0.1522,-0.1531,-0.1533,-0.1575,-0.1582,-0.1628,-0.1628,-0.1611,-0.1614,-0.1695,-0.1695,-0.1696,-0.1706,0,0,0,0,0,0,-0.1112,-0.1127,-0.1124,-0.124,-0.1271,-0.1388,-0.1392,-0.1415,-0.1501,-0.1506,-0.1561,-0.1565,-0.1575,-0.1623,-0.1631,-0.1632,-0.1616,-0.1694,-0.1695,-0.1696,-0.1706,-0.1707,-0.1709,0,0,0,0,0,-0.1104,-0.1125,-0.1121,-0.114,-0.1257,-0.1392,-0.1418,-0.1502,-0.1504,-0.1546,-0.1569,-0.1564,-0.1632,-0.1627,-0.1636,-0.1638,-0.1694,-0.1695,-0.1696,-0.1705,-0.1707,-0.1709,0,0,0,0,0,0,-0.1076,-0.1138,-0.1136,-0.1177,-0.1277,-0.1408,-0.1475,-0.1514,-0.1572,-0.1578,-0.1588,-0.1595,-0.1638,-0.1638,-0.1631,-0.1663,-0.1655,-0.1658,-0.1659,-0.1662,-0.1663,-0.1643,-0.1619,0,0,0,0,0,-0.1057,-0.1073,-0.1166,-0.1208,-0.1252,-0.1356,-0.1424,-0.1485,-0.1557,-0.1585,-0.1613,-0.1631,-0.1649,-0.1655,-0.1688,-0.171,-0.1678,-0.1711,-0.1712,-0.1714,-0.1702,-0.166,-0.1656,-0.17,-0.1699,-0.1699,0,0,-0.1067,-0.1105,-0.1118,-0.1203,-0.1282,-0.1368,-0.1393,-0.1518,-0.157,-0.1579,-0.1642,-0.1659,-0.1663,-0.1693,-0.1707,-0.1689,-0.1685,-0.1715,-0.1716,-0.1704,-0.166,-0.1655,-0.1651,-0.17,-0.17,-0.17,0,0,-0.1118,-0.1117,-0.1154,-0.1239,-0.1365,-0.1415,-0.1447,-0.1572,-0.16,-0.1674,-0.1674,-0.1683,-0.1736,-0.1718,-0.1715,-0.1742,-0.1712,-0.1756,-0.1731,-0.169,-0.1686,-0.1681,-0.1633,-0.1624,-0.1736,-0.1736,-0.1736,0,-0.1124,-0.1165,-0.1202,-0.1287,-0.1346,-0.1426,-0.1497,-0.1559,-0.1678,-0.1664,-0.1697,-0.1718,-0.1738,-0.1709,-0.1726,-0.1743,-0.1717,-0.1723,-0.169,-0.1685,-0.168,-0.1632,-0.1622,-0.1737,-0.1737,-0.1737,-0.1737,0,-0.1217,-0.126,-0.1312,-0.1387,-0.145,-0.1551,-0.1618,-0.1658,-0.1681,-0.1712,-0.1717,-0.1743,-0.1732,-0.1742,-0.1751,-0.1715,-0.1707,-0.1713,-0.168,-0.1676,-0.1626,-0.1615,-0.1738,-0.1738,-0.1737,-0.1737,0,0,-0.1204,-0.1331,-0.1356,-0.1378,-0.1506,-0.156,-0.1612,-0.1641,-0.1631,-0.1711,-0.1674,-0.1714,-0.1707,-0.1703,-0.1702,-0.1668,-0.1627,-0.1679,-0.1677,-0.1623,-0.153,-0.151,-0.1496,-0.163,-0.1628,-0.1627,-0.1508,0,-0.1259,-0.1364,-0.1423,-0.1517,-0.1556,-0.161,-0.1632,-0.1666,-0.1672,-0.1664,-0.1653,-0.1656,-0.1697,-0.1688,-0.1664,-0.1648,-0.1601,-0.1658,-0.155,-0.1546,-0.1521,-0.1483,-0.1337,-0.1218,-0.1497,-0.1495,-0.1494,0,-0.1327,-0.1369,-0.1439,-0.1492,-0.1514,-0.1582,-0.1554,-0.1599,-0.1589,-0.159,-0.1576,-0.1589,-0.1564,-0.1604,-0.1546,-0.1585,-0.1558,-0.1537,-0.1532,-0.1498,-0.1505,-0.1268,-0.1187,-0.1476,-0.1477,-0.1479,-0.148,0,-0.1235,-0.1378,-0.1391,-0.1439,-0.1518,-0.153,-0.1564,-0.1563,-0.1546,-0.1543,-0.1521,-0.1509,-0.1496,-0.1476,-0.1475,-0.1506,-0.1396,-0.1424,-0.1363,-0.1361,-0.1205,-0.1193,-0.1352,-0.1352,-0.1352,-0.1352,-0.1353,0,-0.1237,-0.1281,-0.1364,-0.1382,-0.1387,-0.1473,-0.1457,-0.1477,-0.1479,-0.1445,-0.1484,-0.1446,-0.1467,-0.1425,-0.1428,-0.1363,-0.1355,-0.134,-0.1322,-0.1207,-0.1197,-0.1403,-0.1411,-0.1348,-0.1349,-0.135,-0.1351,0,-0.1176,-0.1231,-0.1249,-0.1316,-0.1344,-0.1346,-0.1413,-0.1403,-0.142,-0.1375,-0.1377,-0.1376,-0.1344,-0.1339,-0.1287,-0.1283,-0.1235,-0.1205,-0.1073,-0.1043,-0.1235,-0.1245,-0.1117,-0.1115,-0.1113,-0.1112,-0.1111,0,-0.115,-0.1168,-0.1177,-0.1172,-0.1226,-0.1263,-0.1287,-0.135,-0.1346,-0.1327,-0.1298,-0.1265,-0.1262,-0.1181,-0.1165,-0.1128,-0.1153,-0.0923,-0.0962,-0.1212,-0.1208,-0.122,-0.1232,-0.0748,-0.0744,-0.0741,-0.0738,0,-0.1125,-0.1126,-0.1115,-0.1085,-0.1113,-0.1147,-0.1207,-0.1194,-0.1253,-0.1241,-0.1236,-0.1242,-0.1176,-0.1101,-0.1035,-0.0967,-0.0933,-0.0858,-0.1101,-0.086,-0.0862,-0.086,-0.0883,-0.0709,-0.0712,-0.0714,-0.0715,-0.0717,-0.1103,-0.1069,-0.1038,-0.1022,-0.1042,-0.108,-0.1114,-0.1185,-0.1206,-0.1261,-0.1235,-0.1215,-0.1133,-0.1036,-0.0916,-0.0734,-0.0833,-0.0704,-0.0714,-0.0727,-0.0735,-0.0738,-0.0561,-0.0563,-0.0565,-0.0566,-0.0567,0,-0.1076,-0.105,-0.1007,-0.0989,-0.0992,-0.1047,-0.1096,-0.1138,-0.1215,-0.1277,-0.1347,-0.1076,-0.1014,-0.0857,-0.0603,-0.0541,-0.0515,-0.0403,-0.0383,-0.0409,-0.0433,-0.0429,-0.0171,-0.0171,-0.0171,-0.017,0,0,-0.1079,-0.1007,-0.0972,-0.096,-0.0982,-0.103,-0.1067,-0.1142,-0.1188,-0.1193,-0.1153,-0.1347,-0.1062,-0.0817,-0.063,-0.0398,-0.0442,-0.0322,-0.0632,-0.0656,-0.0683,-0.0572,-0.059,0,0,0,0,0]},{"header":{"parameterUnit":"m.s-1","parameterCategory":2,"la1":30.2991,"la2":30.254,"lo1":-89.0895,"lo2":-89.0444,"dy":0.0017,"dx":0.0017,"nx":28,"ny":28,"refTime":"2024-04-05T09:00:00:Z","depth":"2","parameterNumber":3,"parameterNumberName":"V-component_of_CURRENTS"},"data":[0,0,0,0,0,0,0,0,0,0,0,0,0,0,0,0,0,0,0,0,0,0,0,0,0,0,0,0,0,0,0,0,0,0,0,0,0,0,0,0,0,0,0,0,0,0,0,0,0,0,0,0,0,0,0,0,0,0,0.008,0.0082,0,0.0291,0.0294,0.0296,0.043,0.0431,0.0431,0.0432,0.0599,0.0603,0.0607,0,0,0,0,0,0,0,0,0,0,0,0,0,0.0037,0.0036,0.0079,0.0082,0.0084,0.0291,0.0294,0.0297,0.043,0.0431,0.0431,0.0432,0.0598,0.0602,0.0607,0,0,0,0,0,0,0,0,0,0,0,0,0,0.0135,0.0036,0.0079,0.0173,0.0184,0.029,0.0294,0.0298,0.043,0.0431,0.0431,0.0432,0.0596,0.0602,0.0608,0.063,0,0,0.0626,0.0629,0,0,0,0,0,0,0,0,0.0129,0.0137,0.0157,0.0167,0.0179,0.0332,0.0341,0.0406,0.043,0.034,0.0432,0.0433,0.0503,0.0517,0.056,0.0638,0.0645,0.0627,0.063,0.0633,0.0635,0,0,0,0,0,0,0,0.0122,0.013,0.0166,0.0159,0.0173,0.0289,0.0302,0.0355,0.0416,0.0348,0.0357,0.0376,0.0509,0.0554,0.0565,0.0647,0.0626,0.0632,0.0636,0.0638,0.0756,0.0756,0,0,0,0,0,0,0.0075,0.0121,0.016,0.0172,0.0152,0.0288,0.0303,0.0285,0.0417,0.0437,0.0375,0.0381,0.0543,0.0558,0.0571,0.0574,0.0633,0.0638,0.0642,0.0756,0.0756,0.0755,0,0,0,0,0,0,0.0073,0.0075,0.0151,0.0153,0.017,0.0286,0.0266,0.0288,0.0341,0.0437,0.0458,0.0404,0.0544,0.0562,0.0615,0.0582,0.0641,0.0647,0.0757,0.0756,0.0756,0.0599,0,0,0,0,0,0,0.007,0.0072,0.0062,0.0147,0.0168,0.0204,0.0266,0.0292,0.0349,0.036,0.0469,0.0486,0.0546,0.0605,0.062,0.0591,0.0651,0.0758,0.0757,0.0756,0.0605,0.0593,0.0583,0,0,0,0,0,0.0067,0.0049,0.0059,0.0065,0.0141,0.0204,0.0225,0.0316,0.0349,0.0367,0.0437,0.0483,0.0611,0.061,0.0628,0.06,0.0758,0.0757,0.0756,0.0609,0.0595,0.0583,0,0,0,0,0,0,0.0049,0.0063,0.0076,0.0068,0.0122,0.0225,0.0254,0.0309,0.0383,0.0396,0.0481,0.0502,0.0534,0.0595,0.0591,0.0634,0.069,0.0693,0.0573,0.056,0.0549,0.0528,0.0656,0,0,0,0,0,0.0027,0.0005,0.0054,0.0053,0.0064,0.0155,0.0197,0.0255,0.0326,0.0363,0.0427,0.0497,0.0545,0.0573,0.0632,0.0656,0.0703,0.0652,0.064,0.0631,0.0627,0.0662,0.0653,0.0752,0.0752,0.0752,0,0,0.0026,0.0029,0.0023,0.0046,0.0092,0.0114,0.0183,0.0237,0.026,0.0365,0.0405,0.0463,0.0545,0.057,0.0589,0.0615,0.0626,0.0629,0.062,0.0623,0.066,0.065,0.0641,0.0751,0.0752,0.0752,0,0,0.0004,-0.0001,-0.003,0.0006,0.0057,0.0101,0.0106,0.0188,0.0221,0.0271,0.0337,0.037,0.0463,0.0496,0.053,0.0496,0.0568,0.052,0.0444,0.0476,0.0467,0.046,0.0493,0.049,0.0512,0.0511,0.0511,0,0.0004,-0.003,-0.0016,-0.0018,0.001,0.0079,0.0084,0.0125,0.0219,0.0228,0.0265,0.0367,0.0423,0.0439,0.0425,0.0466,0.0506,0.0478,0.0458,0.0452,0.0448,0.0483,0.0482,0.0504,0.0504,0.0505,0.0506,0,-0.0032,-0.0044,-0.0051,-0.0059,-0.003,-0.0003,0.0035,0.0057,0.0097,0.0141,0.0168,0.0241,0.0302,0.0311,0.036,0.0349,0.0394,0.0435,0.0479,0.0427,0.0469,0.0471,0.0493,0.0495,0.0498,0.0499,0,0,-0.007,-0.0083,-0.0081,-0.0087,-0.0043,-0.0024,-0.0023,-0.0005,-0.0001,0.0055,0.0061,0.0109,0.0147,0.0188,0.0239,0.0255,0.0243,0.0323,0.0328,0.0335,0.0318,0.0267,0.0265,0.0283,0.0282,0.0282,0.0354,0,-0.0098,-0.0138,-0.0123,-0.0126,-0.0141,-0.0086,-0.0092,-0.0063,-0.0031,-0.0012,0.0026,0.0061,0.01,0.0126,0.0141,0.0231,0.0244,0.022,0.0387,0.0392,0.0335,0.0263,0.0405,0.0474,0.0356,0.0357,0.0357,0,-0.0137,-0.0162,-0.0195,-0.0188,-0.0188,-0.0172,-0.0166,-0.0153,-0.0127,-0.0103,-0.0077,-0.0022,-0.0003,0.005,0.0137,0.0125,0.0204,0.0266,0.0272,0.0281,0.0343,0.0514,0.0482,0.0361,0.0361,0.036,0.036,0,-0.0194,-0.0201,-0.0239,-0.0226,-0.0217,-0.0217,-0.0206,-0.0185,-0.0182,-0.0157,-0.0136,-0.0099,-0.0057,0.0019,0.0125,0.0145,0.0233,0.0286,0.0309,0.0309,0.049,0.0503,0.0344,0.0344,0.0344,0.0343,0.0343,0,-0.0231,-0.0247,-0.0266,-0.0276,-0.03,-0.0271,-0.0281,-0.0265,-0.0241,-0.024,-0.0185,-0.0165,-0.0059,0.0007,0.0102,0.0188,0.0214,0.0276,0.0311,0.0437,0.0444,0.0407,0.0413,0.0346,0.0345,0.0345,0.0344,0,-0.0268,-0.0287,-0.0319,-0.0329,-0.0329,-0.0341,-0.0318,-0.0322,-0.0296,-0.0287,-0.028,-0.0207,-0.0144,-0.0049,0.0085,0.0159,0.025,0.0282,0.0406,0.045,0.0318,0.0316,0.0318,0.0317,0.0315,0.0314,0.0313,0,-0.0291,-0.032,-0.0358,-0.0372,-0.0366,-0.0376,-0.0382,-0.036,-0.0354,-0.0314,-0.0309,-0.0253,-0.0228,-0.0081,0.0043,0.0161,0.0205,0.0403,0.044,0.0275,0.031,0.031,0.0309,0.0643,0.0645,0.0646,0.0648,0,-0.0316,-0.0334,-0.0362,-0.0404,-0.0414,-0.0429,-0.0428,-0.0436,-0.0412,-0.04,-0.0379,-0.0364,-0.0251,-0.004,0.0106,0.0189,0.0381,0.0431,0.0265,0.0583,0.0574,0.061,0.0601,0.0661,0.066,0.0659,0.0658,0.0658,-0.0319,-0.0346,-0.039,-0.0415,-0.0437,-0.0463,-0.0476,-0.0471,-0.0477,-0.0406,-0.0408,-0.0241,-0.0043,0.0224,0.0244,0.0326,0.0333,0.0535,0.0535,0.0533,0.0512,0.0497,0.0568,0.0566,0.0564,0.0563,0.0562,0,-0.0311,-0.035,-0.0389,-0.0429,-0.0452,-0.0466,-0.0489,-0.0469,-0.0473,-0.0348,-0.0306,-0.0,0.0247,0.0401,0.0554,0.0561,0.0537,0.0589,0.069,0.0683,0.0675,0.0661,0.0756,0.0755,0.0753,0.0752,0,0,-0.0316,-0.0352,-0.0382,-0.0428,-0.0455,-0.0478,-0.0499,-0.047,-0.0365,-0.0235,-0.0002,0.0234,0.0459,0.0645,0.0676,0.0749,0.0643,0.0687,0.0569,0.068,0.0667,0.0726,0.0706,0,0,0,0,0]}],[{"header":{"parameterUnit":"m.s-1","parameterCategory":2,"la1":30.2991,"la2":30.254,"lo1":-89.0895,"lo2":-89.0444,"dy":0.0017,"dx":0.0017,"nx":28,"ny":28,"refTime":"2024-04-05T09:00:00:Z","depth":"4","parameterNumber":2,"parameterNumberName":"U-component_of_CURRENTS"},"data":[0,0,0,0,0,0,0,0,0,0,0,0,0,0,0,0,0,0,0,0,0,0,0,0,0,0,0,0,0,0,0,0,0,0,0,0,0,0,0,0,0,0,0,0,0,0,0,0,0,0,0,0,0,0,0,0,0,0,-0.0818,-0.0818,0,-0.0838,-0.0838,-0.0838,-0.0839,-0.0839,-0.0839,-0.0839,-0.0845,-0.0846,-0.0846,0,0,0,0,0,0,0,0,0,0,0,0,0,-0.0731,-0.0733,-0.0818,-0.0818,-0.0819,-0.0838,-0.0838,-0.0838,-0.0839,-0.0839,-0.0839,-0.0839,-0.0845,-0.0846,-0.0846,0,0,0,0,0,0,0,0,0,0,0,0,0,-0.076,-0.0733,-0.0818,-0.0823,-0.0824,-0.0838,-0.0838,-0.0838,-0.0839,-0.0839,-0.0839,-0.0839,-0.0845,-0.0845,-0.0846,-0.085,0,0,-0.0847,-0.0847,0,0,0,0,0,0,0,0,-0.0758,-0.0763,-0.0822,-0.0822,-0.0823,-0.0837,-0.081,-0.0842,-0.0839,-0.0831,-0.0839,-0.0839,-0.0843,-0.0843,-0.0845,-0.085,-0.0851,-0.0847,-0.0847,-0.0847,-0.0847,0,0,0,0,0,0,0,-0.0756,-0.0762,-0.0824,-0.0822,-0.0823,-0.0807,-0.0811,-0.0816,-0.0836,-0.0832,-0.0832,-0.0838,-0.0843,-0.0844,-0.0845,-0.0851,-0.0847,-0.0847,-0.0847,-0.0848,-0.0923,-0.0925,0,0,0,0,0,0,-0.0761,-0.0761,-0.0823,-0.0825,-0.0792,-0.0809,-0.0814,-0.0832,-0.0836,-0.0837,-0.0838,-0.0838,-0.0844,-0.0845,-0.0845,-0.0888,-0.0847,-0.0848,-0.0848,-0.0921,-0.0924,-0.0925,0,0,0,0,0,0,-0.0759,-0.0767,-0.0823,-0.0793,-0.08,-0.0811,-0.0831,-0.0832,-0.084,-0.0841,-0.0841,-0.0845,-0.0844,-0.0845,-0.0866,-0.0886,-0.0848,-0.0848,-0.0919,-0.0922,-0.0924,-0.0949,0,0,0,0,0,0,-0.0757,-0.0766,-0.0781,-0.0794,-0.0802,-0.0837,-0.0831,-0.0833,-0.0843,-0.0844,-0.0847,-0.0847,-0.0844,-0.0866,-0.0867,-0.0886,-0.0848,-0.0917,-0.092,-0.0924,-0.0946,-0.0952,-0.0957,0,0,0,0,0,-0.0754,-0.0772,-0.0782,-0.0789,-0.0822,-0.0837,-0.0839,-0.0845,-0.0844,-0.085,-0.0861,-0.0847,-0.0888,-0.0867,-0.0868,-0.0888,-0.0915,-0.0919,-0.0923,-0.0943,-0.0951,-0.0957,0,0,0,0,0,0,-0.0737,-0.0774,-0.0785,-0.0813,-0.0828,-0.0838,-0.0846,-0.085,-0.0862,-0.0864,-0.0863,-0.0864,-0.0892,-0.0893,-0.087,-0.0924,-0.0903,-0.0907,-0.0917,-0.0924,-0.093,-0.0912,-0.0849,0,0,0,0,0,-0.0743,-0.0769,-0.0795,-0.0816,-0.0827,-0.0838,-0.0846,-0.0851,-0.0863,-0.0868,-0.0873,-0.0888,-0.0909,-0.0918,-0.0931,-0.0954,-0.0941,-0.0973,-0.0979,-0.0983,-0.0972,-0.099,-0.0996,-0.0939,-0.0939,-0.0939,0,0,-0.0741,-0.0765,-0.0779,-0.0814,-0.0827,-0.0844,-0.0842,-0.0857,-0.0871,-0.0867,-0.0889,-0.0904,-0.0921,-0.0951,-0.0965,-0.0953,-0.0993,-0.0988,-0.0992,-0.0978,-0.0995,-0.1,-0.1005,-0.0941,-0.0941,-0.094,0,0,-0.0744,-0.0774,-0.0795,-0.0812,-0.0838,-0.0849,-0.0856,-0.0874,-0.0884,-0.091,-0.0917,-0.0946,-0.0969,-0.0988,-0.1002,-0.1049,-0.1022,-0.1059,-0.1071,-0.1089,-0.1093,-0.1096,-0.1076,-0.1077,-0.1063,-0.1063,-0.1063,0,-0.0739,-0.0774,-0.08,-0.0821,-0.0837,-0.0853,-0.0871,-0.0886,-0.0907,-0.0919,-0.0922,-0.0974,-0.0988,-0.1028,-0.1049,-0.1059,-0.105,-0.1038,-0.1094,-0.1097,-0.11,-0.1078,-0.1079,-0.1065,-0.1064,-0.1064,-0.1064,0,-0.0755,-0.0784,-0.0796,-0.0835,-0.0854,-0.0871,-0.0898,-0.0915,-0.0933,-0.0946,-0.0987,-0.1014,-0.104,-0.1063,-0.1068,-0.1106,-0.1084,-0.1096,-0.1067,-0.1106,-0.1082,-0.1082,-0.1067,-0.1066,-0.1066,-0.1065,0,0,-0.0735,-0.0797,-0.0801,-0.0823,-0.0863,-0.0879,-0.0909,-0.0941,-0.0952,-0.0988,-0.1006,-0.1064,-0.1069,-0.1085,-0.1103,-0.1124,-0.114,-0.1117,-0.1117,-0.108,-0.1149,-0.1001,-0.0987,-0.1159,-0.116,-0.116,-0.1118,0,-0.0737,-0.0783,-0.0812,-0.0847,-0.0872,-0.0901,-0.0923,-0.0952,-0.0975,-0.0993,-0.1035,-0.1059,-0.1081,-0.1093,-0.1121,-0.1136,-0.1145,-0.1148,-0.113,-0.1128,-0.098,-0.0984,-0.1163,-0.1118,-0.1118,-0.1118,-0.1118,0,-0.0735,-0.0772,-0.0815,-0.0861,-0.0873,-0.0894,-0.093,-0.0951,-0.0983,-0.0998,-0.1031,-0.1048,-0.1089,-0.1099,-0.1138,-0.1137,-0.1138,-0.1149,-0.1148,-0.0998,-0.0982,-0.1076,-0.1119,-0.1119,-0.1119,-0.1119,-0.1119,0,-0.0708,-0.0766,-0.0803,-0.0821,-0.0878,-0.0899,-0.0922,-0.0955,-0.0966,-0.0996,-0.0995,-0.1047,-0.1053,-0.1093,-0.1103,-0.1125,-0.1118,-0.1156,-0.1022,-0.1011,-0.1146,-0.1143,-0.1171,-0.1171,-0.1171,-0.1171,-0.1171,0,-0.0691,-0.0717,-0.0797,-0.0816,-0.0849,-0.0889,-0.091,-0.0933,-0.0953,-0.095,-0.0991,-0.0977,-0.1052,-0.1051,-0.1084,-0.1025,-0.1102,-0.1002,-0.0988,-0.1157,-0.1156,-0.1145,-0.1142,-0.1169,-0.117,-0.117,-0.117,0,-0.0643,-0.0699,-0.0747,-0.082,-0.0839,-0.0861,-0.09,-0.0904,-0.0924,-0.0917,-0.0923,-0.0927,-0.0895,-0.0934,-0.0965,-0.0962,-0.0956,-0.0916,-0.105,-0.1048,-0.0844,-0.0844,-0.0772,-0.0766,-0.0761,-0.0757,-0.0754,0,-0.0622,-0.0645,-0.074,-0.077,-0.0804,-0.0842,-0.0855,-0.0889,-0.0886,-0.0869,-0.0852,-0.0809,-0.0803,-0.0718,-0.0773,-0.0777,-0.0781,-0.0785,-0.0853,-0.0808,-0.0803,-0.081,-0.0816,-0.0746,-0.0745,-0.0744,-0.0743,0,-0.0578,-0.0622,-0.0669,-0.0735,-0.0771,-0.0792,-0.0813,-0.0799,-0.0813,-0.0837,-0.0748,-0.0705,-0.0629,-0.0622,-0.0593,-0.0622,-0.0799,-0.0736,-0.0748,-0.0812,-0.0777,-0.0778,-0.079,-0.0726,-0.0729,-0.073,-0.0731,0,-0.0549,-0.0569,-0.0643,-0.0689,-0.0733,-0.0728,-0.0745,-0.0723,-0.0716,-0.0701,-0.0661,-0.0609,-0.0605,-0.0534,-0.0531,-0.0507,-0.0525,-0.057,-0.0591,-0.061,-0.0574,-0.0507,-0.0341,0,0,0,0,0,-0.0516,-0.0535,-0.0584,-0.0637,-0.0674,-0.0695,-0.071,-0.0722,-0.0729,-0.0645,-0.0651,-0.0573,-0.0489,-0.0468,-0.0409,-0.0462,-0.054,-0.0396,-0.0608,-0.0635,-0.0654,-0.0626,0,0,0,0,0,0,-0.0499,-0.0541,-0.0569,-0.0582,-0.0597,-0.062,-0.0625,-0.063,-0.0587,-0.0591,-0.054,-0.0549,-0.0472,-0.0504,-0.0399,-0.0394,-0.052,-0.0377,-0.0375,-0.0624,-0.0641,-0.0657,-0.0635,0,0,0,0,0]},{"header":{"parameterUnit":"m.s-1","parameterCategory":2,"la1":30.2991,"la2":30.254,"lo1":-89.0895,"lo2":-89.0444,"dy":0.0017,"dx":0.0017,"nx":28,"ny":28,"refTime":"2024-04-05T09:00:00:Z","depth":"4","parameterNumber":3,"parameterNumberName":"V-component_of_CURRENTS"},"data":[0,0,0,0,0,0,0,0,0,0,0,0,0,0,0,0,0,0,0,0,0,0,0,0,0,0,0,0,0,0,0,0,0,0,0,0,0,0,0,0,0,0,0,0,0,0,0,0,0,0,0,0,0,0,0,0,0,0,-0.006,-0.006,0,-0.0116,-0.0116,-0.0117,-0.013,-0.0129,-0.0129,-0.0128,-0.0148,-0.0149,-0.015,0,0,0,0,0,0,0,0,0,0,0,0,0,-0.0006,-0.0006,-0.006,-0.006,-0.0061,-0.0116,-0.0116,-0.0117,-0.013,-0.0129,-0.0129,-0.0128,-0.0148,-0.0149,-0.015,0,0,0,0,0,0,0,0,0,0,0,0,0,-0.0043,-0.0007,-0.006,-0.0073,-0.0075,-0.0115,-0.0117,-0.0118,-0.013,-0.0129,-0.0128,-0.0128,-0.0148,-0.0149,-0.0151,-0.0174,0,0,-0.0155,-0.0156,0,0,0,0,0,0,0,0,-0.0041,-0.0045,-0.007,-0.0072,-0.0074,-0.0114,-0.0105,-0.0134,-0.013,-0.011,-0.0128,-0.0127,-0.0134,-0.0136,-0.015,-0.0175,-0.0176,-0.0155,-0.0156,-0.0157,-0.0157,0,0,0,0,0,0,0,-0.0038,-0.0043,-0.0083,-0.0071,-0.0073,-0.0091,-0.0095,-0.0111,-0.0125,-0.0112,-0.0112,-0.0117,-0.0134,-0.0149,-0.0151,-0.0176,-0.0155,-0.0157,-0.0157,-0.0158,-0.0168,-0.0168,0,0,0,0,0,0,-0.0028,-0.004,-0.0081,-0.0084,-0.0054,-0.0092,-0.0097,-0.0103,-0.0126,-0.0129,-0.0118,-0.0118,-0.0147,-0.0149,-0.0151,-0.0167,-0.0157,-0.0158,-0.0159,-0.0169,-0.0168,-0.0167,0,0,0,0,0,0,-0.0027,-0.0031,-0.0079,-0.0063,-0.007,-0.0093,-0.01,-0.0104,-0.0119,-0.0131,-0.0133,-0.0128,-0.0146,-0.0149,-0.0161,-0.0168,-0.0159,-0.016,-0.017,-0.0169,-0.0168,-0.0206,0,0,0,0,0,0,-0.0025,-0.003,-0.0033,-0.0062,-0.007,-0.0108,-0.0101,-0.0106,-0.0123,-0.0123,-0.0141,-0.0142,-0.0146,-0.0159,-0.0163,-0.017,-0.0161,-0.017,-0.0169,-0.0168,-0.0206,-0.0207,-0.0208,0,0,0,0,0,-0.0023,-0.0035,-0.0033,-0.0038,-0.0072,-0.0108,-0.0115,-0.0129,-0.0124,-0.0138,-0.014,-0.0141,-0.0153,-0.0161,-0.0165,-0.0172,-0.0171,-0.0169,-0.0168,-0.0205,-0.0207,-0.0208,0,0,0,0,0,0,-0.0014,-0.0038,-0.0036,-0.0054,-0.0078,-0.011,-0.0126,-0.0132,-0.0148,-0.0145,-0.0148,-0.015,-0.016,-0.0156,-0.0163,-0.0166,-0.0157,-0.0156,-0.0183,-0.0184,-0.0185,-0.019,-0.0163,0,0,0,0,0,-0.0012,-0.0027,-0.005,-0.0065,-0.0077,-0.01,-0.0116,-0.0127,-0.0144,-0.0151,-0.0161,-0.0159,-0.0159,-0.0164,-0.0167,-0.0181,-0.0163,-0.018,-0.0181,-0.0182,-0.0185,-0.0162,-0.0162,-0.0163,-0.0163,-0.0163,0,0,-0.0012,-0.0027,-0.0035,-0.0065,-0.0084,-0.0116,-0.0109,-0.0138,-0.016,-0.015,-0.0179,-0.0171,-0.0162,-0.0173,-0.0175,-0.0171,-0.0169,-0.018,-0.0181,-0.0184,-0.016,-0.016,-0.016,-0.0162,-0.0162,-0.0162,0,0,-0.0037,-0.0035,-0.0063,-0.0084,-0.0115,-0.0129,-0.0136,-0.0169,-0.0177,-0.0202,-0.0188,-0.0182,-0.0197,-0.0188,-0.0184,-0.019,-0.0175,-0.0184,-0.02,-0.0178,-0.0178,-0.0178,-0.0151,-0.0148,-0.0185,-0.0185,-0.0185,0,-0.0036,-0.0071,-0.0077,-0.0114,-0.0131,-0.0135,-0.017,-0.0184,-0.0215,-0.0216,-0.0212,-0.021,-0.0204,-0.0201,-0.0198,-0.0195,-0.0177,-0.0204,-0.0181,-0.0181,-0.018,-0.0153,-0.0149,-0.0187,-0.0187,-0.0186,-0.0186,0,-0.0091,-0.0113,-0.0133,-0.0173,-0.0192,-0.0222,-0.0238,-0.0251,-0.0251,-0.0259,-0.0258,-0.0247,-0.024,-0.0231,-0.0221,-0.0209,-0.0196,-0.0188,-0.0185,-0.0183,-0.0153,-0.0149,-0.0189,-0.0189,-0.0188,-0.0188,0,0,-0.0104,-0.016,-0.0167,-0.0185,-0.0223,-0.0242,-0.0268,-0.0287,-0.0292,-0.0304,-0.0312,-0.0296,-0.0279,-0.027,-0.025,-0.0229,-0.0205,-0.0209,-0.0207,-0.0194,-0.0152,-0.0112,-0.0103,-0.0197,-0.0197,-0.0196,-0.0132,0,-0.0145,-0.0212,-0.0229,-0.0277,-0.0306,-0.0307,-0.0325,-0.0336,-0.0336,-0.0345,-0.0321,-0.032,-0.0297,-0.0287,-0.0266,-0.0234,-0.0196,-0.0223,-0.0146,-0.0143,-0.0118,-0.0098,-0.0195,-0.0129,-0.0128,-0.0127,-0.0127,0,-0.0198,-0.023,-0.0289,-0.0312,-0.0323,-0.0347,-0.0354,-0.0372,-0.0374,-0.0372,-0.0365,-0.0353,-0.0338,-0.0307,-0.025,-0.0271,-0.0207,-0.017,-0.0166,-0.0114,-0.0095,-0.013,-0.0119,-0.0119,-0.012,-0.0121,-0.0121,0,-0.0207,-0.0265,-0.0305,-0.0321,-0.0356,-0.0366,-0.0373,-0.0379,-0.0375,-0.0387,-0.0379,-0.0375,-0.0359,-0.0309,-0.0246,-0.0245,-0.0173,-0.0162,-0.0056,-0.0052,-0.0094,-0.0094,-0.0085,-0.0085,-0.0085,-0.0085,-0.0086,0,-0.0241,-0.0271,-0.031,-0.0334,-0.0356,-0.0372,-0.0383,-0.039,-0.0387,-0.0363,-0.0386,-0.0354,-0.0354,-0.0317,-0.0257,-0.0156,-0.0179,-0.0052,-0.0031,-0.0109,-0.0112,-0.009,-0.0092,-0.0083,-0.0083,-0.0084,-0.0084,0,-0.0253,-0.0285,-0.0326,-0.0361,-0.0367,-0.0381,-0.0382,-0.0379,-0.0378,-0.0349,-0.0349,-0.0345,-0.0302,-0.0289,-0.0213,-0.0152,-0.0073,-0.0013,-0.0105,-0.0091,0.004,0.0036,0.0104,0.0106,0.0108,0.011,0.0111,0,-0.0266,-0.0294,-0.0339,-0.0354,-0.0372,-0.0385,-0.0384,-0.038,-0.0361,-0.0309,-0.0286,-0.0261,-0.0244,-0.0123,-0.0121,-0.004,-0.0,0.0042,0.0051,0.0047,0.006,0.0053,0.0047,0.0113,0.0114,0.0114,0.0115,0,-0.0283,-0.0303,-0.0332,-0.0365,-0.0376,-0.038,-0.0369,-0.0347,-0.0308,-0.0299,-0.0182,-0.0128,-0.0084,-0.0061,-0.0021,0.0053,-0.0006,0.006,0.0058,0.0067,0.0059,0.0068,0.006,0.0121,0.012,0.0119,0.0119,0,-0.0284,-0.0306,-0.0344,-0.0367,-0.0382,-0.0372,-0.0365,-0.03,-0.0267,-0.0179,-0.0128,-0.0081,-0.0063,-0.0006,0.0044,0.0079,0.0116,0.0167,0.016,0.0154,0.0138,0.0132,0.0243,0,0,0,0,0,-0.0281,-0.0308,-0.0338,-0.0371,-0.0385,-0.0391,-0.0352,-0.0333,-0.0271,-0.016,-0.0131,-0.0063,0.0033,0.0043,0.0094,0.0037,0.007,0.0099,0.0112,0.0153,0.0146,0.0121,0,0,0,0,0,0,-0.0283,-0.0316,-0.0339,-0.0365,-0.0386,-0.0393,-0.0366,-0.0324,-0.025,-0.0172,-0.0136,-0.0036,0.0008,-0.0015,0.0089,0.0097,0.0126,0.0139,0.0142,0.0157,0.0151,0.0145,0.0117,0,0,0,0,0]}]]